[[{"header":{"parameterUnit":"m.s-1","parameterCategory":1,"la1":30.2991,"la2":30.254,"lo1":-89.0895,"lo2":-89.0444,"dy":0.0017,"dx":0.0017,"nx":28,"ny":28,"refTime":"2025-04-16T21:00:00:Z","depth":0,"parameterNumber":2,"parameterNumberName":"U-component_of_WINDS"},"data":[0,0,0,0,0,0,0,0,0,0,0,0,0,0,0,0,0,0,0,0,0,0,0,0,0,0,0,0,0,0,0,0,0,0,0,0,0,0,0,0,0,0,0,0,0,0,0,0,0,0,0,0,0,0,0,0,0,0,-3.3425,-3.3424,0,-3.3396,-3.3396,-3.3396,-3.3308,-3.3306,-3.3304,-3.3302,-3.3275,-3.3276,-3.3277,0,0,0,0,0,0,0,0,0,0,0,0,0,-3.3405,-3.3405,-3.3425,-3.3424,-3.3424,-3.3396,-3.3396,-3.3396,-3.3308,-3.3305,-3.3303,-3.3301,-3.3275,-3.3276,-3.3277,0,0,0,0,0,0,0,0,0,0,0,0,0,-3.3399,-3.3406,-3.3425,-3.3377,-3.3372,-3.3397,-3.3396,-3.3396,-3.3308,-3.3305,-3.3302,-3.33,-3.3274,-3.3276,-3.3277,-3.3346,0,0,-3.3282,-3.3283,0,0,0,0,0,0,0,0,-3.3399,-3.34,-3.3384,-3.338,-3.3375,-3.3352,-3.3379,-3.3379,-3.3309,-3.3333,-3.3302,-3.3298,-3.3303,-3.3302,-3.3303,-3.3345,-3.3344,-3.3283,-3.3284,-3.3284,-3.3285,0,0,0,0,0,0,0,-3.34,-3.34,-3.3413,-3.3384,-3.3379,-3.3357,-3.3353,-3.3379,-3.3335,-3.333,-3.3324,-3.3322,-3.33,-3.3302,-3.3302,-3.3344,-3.3283,-3.3284,-3.3285,-3.3286,-3.3442,-3.3445,0,0,0,0,0,0,-3.3407,-3.3401,-3.3414,-3.3413,-3.338,-3.336,-3.3356,-3.3363,-3.3334,-3.3327,-3.3324,-3.3318,-3.3301,-3.33,-3.3301,-3.3381,-3.3284,-3.3286,-3.3287,-3.3439,-3.3443,-3.3446,0,0,0,0,0,0,-3.3407,-3.3409,-3.3416,-3.3405,-3.3404,-3.3364,-3.3372,-3.3364,-3.3366,-3.333,-3.3322,-3.3334,-3.3298,-3.3299,-3.3336,-3.3379,-3.3287,-3.3288,-3.3435,-3.344,-3.3444,-3.3542,0,0,0,0,0,0,-3.3406,-3.3409,-3.3435,-3.3406,-3.3405,-3.3451,-3.3375,-3.3365,-3.3368,-3.336,-3.3337,-3.333,-3.3296,-3.3334,-3.3338,-3.338,-3.3289,-3.3431,-3.3437,-3.3443,-3.3535,-3.3549,-3.3562,0,0,0,0,0,-3.3406,-3.3463,-3.3436,-3.3438,-3.3436,-3.3453,-3.3453,-3.3412,-3.3372,-3.3398,-3.3375,-3.3331,-3.3373,-3.3339,-3.3342,-3.3385,-3.3428,-3.3436,-3.3442,-3.3529,-3.3546,-3.3562,0,0,0,0,0,0,-3.3498,-3.3459,-3.3428,-3.3478,-3.347,-3.3438,-3.3469,-3.3432,-3.3435,-3.3427,-3.3376,-3.3372,-3.3417,-3.3404,-3.3366,-3.3451,-3.3394,-3.3402,-3.3458,-3.3475,-3.3488,-3.3491,-3.3291,0,0,0,0,0,-3.3524,-3.3541,-3.3505,-3.3553,-3.355,-3.3511,-3.3517,-3.3486,-3.3475,-3.3472,-3.3451,-3.3444,-3.3455,-3.3464,-3.3472,-3.3532,-3.3527,-3.3563,-3.3577,-3.3588,-3.3597,-3.3629,-3.3645,-3.3469,-3.3469,-3.3469,0,0,-3.3578,-3.3559,-3.3572,-3.3571,-3.3561,-3.358,-3.3508,-3.3532,-3.3546,-3.3475,-3.351,-3.3495,-3.3482,-3.3532,-3.3552,-3.3523,-3.3644,-3.3597,-3.3607,-3.3609,-3.3638,-3.3654,-3.3669,-3.3474,-3.3473,-3.3473,0,0,-3.3687,-3.3673,-3.3712,-3.3703,-3.3689,-3.3662,-3.3672,-3.3646,-3.3633,-3.3667,-3.3614,-3.3631,-3.3651,-3.3645,-3.3645,-3.3752,-3.3713,-3.3756,-3.3828,-3.386,-3.3874,-3.3886,-3.3926,-3.3941,-3.3764,-3.3764,-3.3765,0,-3.3757,-3.3783,-3.3737,-3.3764,-3.3765,-3.3701,-3.3741,-3.3735,-3.3724,-3.3727,-3.3694,-3.3719,-3.3706,-3.3754,-3.378,-3.3781,-3.3792,-3.376,-3.3876,-3.3887,-3.3898,-3.3936,-3.395,-3.377,-3.3769,-3.3769,-3.3768,0,-3.387,-3.3889,-3.3922,-3.3914,-3.3918,-3.3952,-3.3911,-3.3922,-3.389,-3.3868,-3.3904,-3.3886,-3.389,-3.3899,-3.3869,-3.3943,-3.3925,-3.3884,-3.3826,-3.3921,-3.3956,-3.3969,-3.3778,-3.3776,-3.3774,-3.3773,0,0,-3.4037,-3.4002,-3.4015,-3.4011,-3.399,-3.4005,-3.4035,-3.4039,-3.405,-3.4045,-3.407,-3.4089,-3.4052,-3.4052,-3.402,-3.4048,-3.4136,-3.4004,-3.4003,-3.403,-3.4219,-3.4251,-3.4268,-3.4109,-3.4111,-3.4113,-3.422,0,-3.4142,-3.4192,-3.4151,-3.4209,-3.4227,-3.4167,-3.4194,-3.4185,-3.4164,-3.4177,-3.4154,-3.417,-3.4118,-3.4118,-3.4142,-3.412,-3.4173,-3.4111,-3.4134,-3.4135,-3.4141,-3.4286,-3.432,-3.4422,-3.4233,-3.4236,-3.4237,0,-3.4271,-3.4272,-3.4332,-3.4308,-3.4314,-3.4339,-3.4339,-3.4352,-3.4341,-3.4324,-3.4324,-3.4285,-3.4314,-3.4256,-3.4296,-3.4255,-3.4262,-3.4252,-3.4255,-3.4257,-3.4193,-3.4294,-3.4453,-3.4469,-3.4258,-3.4256,-3.4255,0,-3.439,-3.4405,-3.4443,-3.4441,-3.4414,-3.4433,-3.4423,-3.4408,-3.4413,-3.4414,-3.4417,-3.4422,-3.4425,-3.443,-3.4393,-3.4354,-3.4439,-3.4377,-3.4428,-3.4429,-3.445,-3.445,-3.4615,-3.4451,-3.4451,-3.4451,-3.445,0,-3.4512,-3.4551,-3.4496,-3.452,-3.4562,-3.4515,-3.4559,-3.4542,-3.453,-3.4551,-3.4498,-3.4518,-3.4468,-3.4483,-3.4455,-3.4494,-3.4495,-3.4484,-3.4476,-3.449,-3.4491,-3.4494,-3.4487,-3.4455,-3.4454,-3.4453,-3.4452,0,-3.4652,-3.4616,-3.4654,-3.4625,-3.4619,-3.4652,-3.4627,-3.4649,-3.4624,-3.4651,-3.4654,-3.4617,-3.4632,-3.4596,-3.4606,-3.4587,-3.4643,-3.4623,-3.4648,-3.4642,-3.4695,-3.4692,-3.487,-3.4892,-3.4713,-3.4715,-3.4716,0,-3.4734,-3.4762,-3.4737,-3.4746,-3.4739,-3.4754,-3.4759,-3.4714,-3.4722,-3.4711,-3.4735,-3.4745,-3.4752,-3.4779,-3.4754,-3.4761,-3.4742,-3.4804,-3.4743,-3.4757,-3.4746,-3.4745,-3.4749,-3.4818,-3.482,-3.4822,-3.4823,0,-3.4883,-3.4863,-3.4872,-3.4876,-3.4883,-3.4884,-3.4881,-3.4892,-3.4843,-3.4855,-3.487,-3.4875,-3.4885,-3.4897,-3.4899,-3.4889,-3.4849,-3.4842,-3.4855,-3.487,-3.4883,-3.4879,-3.4684,-3.4839,-3.4837,-3.4836,-3.4835,-3.4835,-3.4997,-3.502,-3.5006,-3.5018,-3.5011,-3.501,-3.5029,-3.5007,-3.5018,-3.5023,-3.4995,-3.5017,-3.5005,-3.5003,-3.4998,-3.5014,-3.4987,-3.5004,-3.5009,-3.5015,-3.5024,-3.4879,-3.5014,-3.5014,-3.5013,-3.5013,-3.5013,0,-3.5145,-3.5133,-3.5144,-3.5142,-3.5152,-3.5111,-3.5106,-3.5117,-3.5137,-3.5129,-3.5136,-3.5154,-3.5166,-3.5141,-3.5149,-3.5167,-3.5149,-3.5171,-3.517,-3.5169,-3.5048,-3.5037,-3.5185,-3.5185,-3.5185,-3.5185,-3.5185,-3.5185,-3.5223,-3.5261,-3.5241,-3.5275,-3.5262,-3.5283,-3.5283,-3.5282,-3.5276,-3.5298,-3.5307,-3.529,-3.5276,-3.5283,-3.5292,-3.5284,-3.5291,-3.532,-3.5306,-3.5194,-3.5177,-3.5161,-3.5151,-3.5321,-3.5321,-3.5426,-3.5427,-3.5428]},{"header":{"parameterUnit":"m.s-1","parameterCategory":1,"la1":30.2991,"la2":30.254,"lo1":-89.0895,"lo2":-89.0444,"dy":0.0017,"dx":0.0017,"nx":28,"ny":28,"refTime":"2025-04-16T21:00:00:Z","depth":0,"parameterNumber":3,"parameterNumberName":"V-component_of_WINDS"},"data":[0,0,0,0,0,0,0,0,0,0,0,0,0,0,0,0,0,0,0,0,0,0,0,0,0,0,0,0,0,0,0,0,0,0,0,0,0,0,0,0,0,0,0,0,0,0,0,0,0,0,0,0,0,0,0,0,0,0,-1.9524,-1.9524,0,-1.9533,-1.9533,-1.9533,-1.949,-1.9489,-1.9488,-1.9486,-1.9495,-1.9497,-1.9498,0,0,0,0,0,0,0,0,0,0,0,0,0,-1.9467,-1.9468,-1.9524,-1.9524,-1.9524,-1.9533,-1.9533,-1.9533,-1.949,-1.9489,-1.9487,-1.9486,-1.9495,-1.9496,-1.9498,0,0,0,0,0,0,0,0,0,0,0,0,0,-1.9486,-1.9469,-1.9524,-1.9504,-1.9502,-1.9533,-1.9533,-1.9533,-1.9491,-1.9489,-1.9487,-1.9485,-1.9494,-1.9496,-1.9498,-1.9549,0,0,-1.9505,-1.9506,0,0,0,0,0,0,0,0,-1.9485,-1.9488,-1.9506,-1.9505,-1.9503,-1.9508,-1.9516,-1.9539,-1.9491,-1.9495,-1.9486,-1.9484,-1.9501,-1.9502,-1.9508,-1.9549,-1.955,-1.9505,-1.9506,-1.9507,-1.9508,0,0,0,0,0,0,0,-1.9483,-1.9487,-1.9527,-1.9507,-1.9505,-1.9494,-1.9494,-1.952,-1.9508,-1.9494,-1.9491,-1.9493,-1.95,-1.9506,-1.9508,-1.955,-1.9505,-1.9507,-1.9508,-1.9509,-1.9632,-1.9634,0,0,0,0,0,0,-1.9485,-1.9486,-1.9527,-1.9528,-1.9489,-1.9496,-1.9497,-1.9509,-1.9508,-1.9506,-1.9495,-1.9491,-1.9504,-1.9506,-1.9508,-1.9567,-1.9507,-1.9509,-1.951,-1.963,-1.9633,-1.9635,0,0,0,0,0,0,-1.9484,-1.9489,-1.9527,-1.9506,-1.951,-1.9499,-1.9513,-1.951,-1.9516,-1.9508,-1.9506,-1.9504,-1.9502,-1.9505,-1.9539,-1.9567,-1.951,-1.9512,-1.9628,-1.9631,-1.9634,-1.9686,0,0,0,0,0,0,-1.9482,-1.9489,-1.9508,-1.9507,-1.9511,-1.9558,-1.9515,-1.9511,-1.952,-1.9516,-1.9516,-1.9514,-1.9501,-1.9536,-1.9541,-1.9569,-1.9514,-1.9625,-1.9629,-1.9633,-1.9682,-1.9691,-1.9698,0,0,0,0,0,-1.948,-1.9523,-1.951,-1.9515,-1.9536,-1.956,-1.9562,-1.9546,-1.9523,-1.9542,-1.9537,-1.9514,-1.9563,-1.954,-1.9545,-1.9574,-1.9623,-1.9628,-1.9632,-1.9678,-1.9689,-1.9698,0,0,0,0,0,0,-1.9528,-1.9522,-1.9508,-1.9551,-1.9556,-1.9552,-1.9576,-1.9558,-1.957,-1.9565,-1.9545,-1.9545,-1.9582,-1.9581,-1.9556,-1.9623,-1.9589,-1.9595,-1.9622,-1.9632,-1.964,-1.964,-1.9515,0,0,0,0,0,-1.9543,-1.9563,-1.9557,-1.9596,-1.9599,-1.9587,-1.9597,-1.9585,-1.9589,-1.9591,-1.9588,-1.9593,-1.9609,-1.9621,-1.9635,-1.9681,-1.9681,-1.9704,-1.9712,-1.9719,-1.9724,-1.9748,-1.9758,-1.965,-1.965,-1.965,0,0,-1.9575,-1.9575,-1.9589,-1.9605,-1.9608,-1.9629,-1.959,-1.9614,-1.9629,-1.9594,-1.9626,-1.9624,-1.9628,-1.9669,-1.9686,-1.9669,-1.9754,-1.9724,-1.973,-1.9732,-1.9754,-1.9764,-1.9773,-1.9653,-1.9652,-1.9652,0,0,-1.9644,-1.9646,-1.9678,-1.9682,-1.9686,-1.9678,-1.9686,-1.9685,-1.9682,-1.9714,-1.9688,-1.9706,-1.9734,-1.9738,-1.9744,-1.9814,-1.9794,-1.9819,-1.9862,-1.9886,-1.9894,-1.9902,-1.9927,-1.9936,-1.9825,-1.9825,-1.9825,0,-1.9684,-1.9715,-1.9697,-1.9723,-1.9731,-1.9701,-1.9733,-1.9737,-1.9746,-1.9752,-1.9732,-1.9768,-1.9768,-1.9809,-1.9826,-1.9831,-1.9839,-1.982,-1.9895,-1.9902,-1.9909,-1.9932,-1.9942,-1.9828,-1.9828,-1.9827,-1.9827,0,-1.9763,-1.9785,-1.981,-1.982,-1.9831,-1.986,-1.9846,-1.9858,-1.9845,-1.9838,-1.987,-1.987,-1.9884,-1.9892,-1.9879,-1.9931,-1.992,-1.9898,-1.9864,-1.9922,-1.9944,-1.9953,-1.9832,-1.9831,-1.983,-1.983,0,0,-1.9863,-1.9862,-1.9872,-1.9876,-1.9878,-1.9894,-1.9922,-1.9935,-1.9947,-1.9954,-1.9976,-2.0001,-1.998,-1.9987,-1.9973,-1.9994,-2.005,-1.9969,-1.9969,-1.9984,-2.0107,-2.0124,-2.0135,-2.0036,-2.0038,-2.0039,-2.0107,0,-1.9931,-1.9978,-1.9963,-2.001,-2.003,-2.0001,-2.0025,-2.0028,-2.0023,-2.0039,-2.0032,-2.005,-2.0022,-2.0025,-2.0045,-2.0039,-2.0074,-2.0034,-2.0056,-2.0057,-2.0057,-2.0146,-2.0164,-2.0228,-2.0115,-2.0116,-2.0118,0,-2.0017,-2.0028,-2.0078,-2.0076,-2.0084,-2.0105,-2.0117,-2.0132,-2.0135,-2.013,-2.0137,-2.0119,-2.0145,-2.0111,-2.0146,-2.0119,-2.0127,-2.0126,-2.0128,-2.013,-2.0092,-2.0151,-2.0248,-2.0258,-2.0131,-2.013,-2.0129,0,-2.0086,-2.0112,-2.0145,-2.0149,-2.0149,-2.0164,-2.0165,-2.0166,-2.0175,-2.0185,-2.019,-2.0203,-2.021,-2.022,-2.0205,-2.0181,-2.0243,-2.0207,-2.0239,-2.024,-2.0254,-2.0253,-2.0354,-2.0259,-2.0258,-2.0258,-2.0258,0,-2.0164,-2.0195,-2.0176,-2.0196,-2.0231,-2.0212,-2.0246,-2.0243,-2.0245,-2.0264,-2.0239,-2.0257,-2.0237,-2.0253,-2.0242,-2.0273,-2.0276,-2.0273,-2.0269,-2.0275,-2.0276,-2.0281,-2.0276,-2.0261,-2.026,-2.026,-2.0259,0,-2.0246,-2.0235,-2.0269,-2.0265,-2.0265,-2.029,-2.0287,-2.0305,-2.0298,-2.0322,-2.0326,-2.0315,-2.0332,-2.0319,-2.0337,-2.0329,-2.037,-2.036,-2.0369,-2.0367,-2.04,-2.0397,-2.0508,-2.0522,-2.0417,-2.0418,-2.0419,0,-2.0297,-2.0321,-2.032,-2.0331,-2.0333,-2.0351,-2.036,-2.0342,-2.0352,-2.0358,-2.0376,-2.0391,-2.0403,-2.0433,-2.0425,-2.0439,-2.0429,-2.0467,-2.0431,-2.0436,-2.043,-2.0429,-2.0431,-2.0475,-2.0476,-2.0477,-2.0478,0,-2.0389,-2.0382,-2.0396,-2.0409,-2.042,-2.0429,-2.0436,-2.0446,-2.0428,-2.0441,-2.0459,-2.0468,-2.0486,-2.0502,-2.0512,-2.0512,-2.0492,-2.0489,-2.0497,-2.0504,-2.0508,-2.0506,-2.039,-2.0487,-2.0486,-2.0485,-2.0485,-2.0484,-2.0457,-2.0477,-2.0479,-2.0496,-2.0499,-2.0506,-2.0523,-2.0517,-2.0532,-2.0545,-2.0534,-2.0555,-2.0557,-2.0569,-2.0572,-2.0588,-2.0572,-2.0584,-2.0587,-2.059,-2.0595,-2.0505,-2.059,-2.0589,-2.0589,-2.0589,-2.0589,0,-2.0548,-2.0548,-2.0563,-2.0574,-2.0587,-2.0566,-2.0573,-2.0585,-2.0604,-2.0608,-2.062,-2.064,-2.0656,-2.0649,-2.0663,-2.0677,-2.0668,-2.0681,-2.068,-2.068,-2.0608,-2.06,-2.0688,-2.0688,-2.0688,-2.0688,-2.0688,-2.0688,-2.0597,-2.0629,-2.0622,-2.0655,-2.0654,-2.0675,-2.0681,-2.0687,-2.0689,-2.0714,-2.0726,-2.0722,-2.0722,-2.0734,-2.0747,-2.0745,-2.0751,-2.0768,-2.0762,-2.0695,-2.0685,-2.0676,-2.0668,-2.0769,-2.0769,-2.0833,-2.0833,-2.0834]}]]